Temp_Advection
nan nan nan nan nan nan nan nan nan nan nan nan nan nan nan nan nan nan nan nan nan nan nan nan nan nan nan nan nan nan nan nan nan nan nan nan nan nan nan nan nan nan
nan 1 0 -0 -0 -0 -0 0 -0 -1 -1 -1 0 1 0 0 1 3 5 3 1 0 1 1 1 1 1 1 1 1 1 1 1 1 1 1 1 1 1 1 1 nan
nan -0 0 0 1 1 1 2 1 0 -0 -1 -0 -0 -0 0 0 1 4 4 1 1 1 1 1 1 1 2 1 1 1 1 1 1 1 1 1 1 1 1 1 nan
nan -1 -0 0 1 1 1 2 1 1 0 -1 -0 0 1 0 -1 -1 1 3 2 2 2 1 1 1 2 2 1 1 1 1 1 1 1 1 1 1 1 1 1 nan
nan -1 -0 -0 -0 1 1 1 1 1 1 0 0 1 1 -0 -1 -1 -0 1 2 2 2 1 1 2 2 2 1 0 0 0 1 1 1 1 1 1 1 1 1 nan
nan -0 -0 -0 0 0 1 0 1 2 2 2 1 0 0 -0 -1 -1 -1 0 1 1 1 0 1 2 3 2 1 1 0 0 1 1 1 1 1 1 1 1 1 nan
nan -0 -0 -0 0 1 1 1 2 2 2 2 1 0 1 0 -0 -1 -0 1 1 0 -0 -1 0 2 3 3 1 0 1 1 0 1 1 1 1 1 1 1 1 nan
nan -1 -1 -1 -0 -0 -0 1 1 2 3 2 1 1 1 0 -0 -0 0 1 0 -0 -1 -1 -0 1 2 2 1 1 1 1 1 0 1 1 1 1 1 1 1 nan
nan -1 -1 -1 -1 -1 -1 0 1 2 2 2 1 2 1 0 0 0 0 -0 -0 -0 -0 -0 0 1 2 2 1 1 0 0 1 0 1 1 1 1 1 2 2 nan
nan -1 -1 -1 -1 -1 -1 1 1 1 1 1 1 1 1 1 1 -0 -0 -1 -0 0 0 0 0 1 1 1 1 1 1 0 0 1 1 1 1 2 2 2 2 nan
nan 0 -0 -1 -1 -1 -1 0 0 1 1 1 1 1 1 1 0 -0 -0 -0 -0 1 1 1 1 0 -0 0 1 1 1 1 0 1 1 1 2 2 1 1 1 nan
nan 1 1 0 -0 -0 -0 -0 0 1 1 1 1 1 1 1 0 0 -0 -0 0 1 1 1 1 0 -0 -0 0 0 1 1 1 1 1 1 1 1 1 1 1 nan
nan 1 1 1 1 0 -0 -0 -0 1 1 1 1 2 2 1 1 0 0 0 1 1 1 1 1 0 0 -0 -0 0 0 1 0 1 1 1 1 1 1 1 1 nan
nan 0 1 1 1 1 1 0 -0 0 0 1 1 1 1 2 2 2 1 1 1 1 1 1 1 0 0 -0 -1 -0 0 0 0 0 1 1 1 1 1 1 1 nan
nan -1 -0 0 1 1 1 1 1 1 1 1 0 -0 -0 1 1 2 2 2 2 2 1 1 0 -0 0 -0 -0 -0 -0 -0 0 0 1 1 1 1 1 1 1 nan
nan -1 -1 -1 -1 -0 0 1 1 1 1 1 1 0 -0 0 0 0 1 1 1 2 2 2 1 1 1 0 0 -0 -0 -0 -0 0 0 1 1 1 1 1 1 nan
nan -1 -1 -1 -1 -1 -1 -0 0 1 1 1 1 1 1 1 1 0 0 0 0 1 1 2 2 2 2 1 1 0 -0 -0 -0 0 1 1 1 1 1 1 1 nan
nan -2 -2 -1 -1 -1 -1 -1 -1 -1 0 1 1 2 1 1 0 0 0 1 1 0 -0 0 1 2 3 2 1 1 0 -0 -0 0 1 1 1 1 1 1 1 nan
nan -2 -2 -2 -2 -2 -1 -1 -1 -1 -1 -1 -0 1 2 1 0 0 0 1 1 -0 -0 -0 1 2 3 2 2 1 0 -0 -0 0 0 1 1 1 1 1 1 nan
nan -2 -2 -2 -2 -2 -2 -2 -2 -1 -1 -1 -1 -1 0 0 1 1 1 1 1 -1 -1 -1 0 2 3 2 2 2 1 -0 -0 0 1 1 1 1 1 1 1 nan
nan -1 -1 -1 -1 -1 -2 -2 -2 -2 -1 -1 -2 -2 -1 -1 -0 1 1 2 2 1 -1 -2 -0 1 2 2 2 2 1 1 -0 0 1 0 0 1 0 1 1 nan
nan -2 -1 -1 -1 -1 -1 -1 -1 -2 -2 -2 -2 -2 -1 -1 -1 -1 -0 1 3 3 0 -1 0 1 1 1 2 2 2 2 0 0 1 0 -0 0 0 1 1 nan
nan -3 -3 -2 -1 -1 -1 -1 -1 -1 -1 -1 -3 -3 -2 -1 -1 -1 -1 -1 0 2 1 -0 1 3 1 0 1 2 2 2 1 0 1 1 0 -0 -0 0 0 nan
nan -3 -3 -3 -2 -2 -2 -2 -1 -1 -0 0 -1 -3 -3 -1 -1 -2 -1 -0 -1 -0 0 -1 -0 3 3 1 1 2 1 1 1 1 1 2 1 0 -0 -0 -0 nan
nan -2 -2 -3 -3 -2 -2 -2 -1 -2 -1 -1 -1 -1 -2 -2 -1 -3 -2 -0 0 -1 -0 -1 -1 1 2 1 1 2 2 1 1 1 1 1 2 1 0 -0 -0 nan
nan nan nan nan nan nan nan nan nan nan nan nan nan nan nan nan nan nan nan nan nan nan nan nan nan nan nan nan nan nan nan nan nan nan nan nan nan nan nan nan nan nan
Wind_Speed
23 24 25 27 28 30 32 34 36 37 37 38 39 40 41 42 43 44 44 43 42 42 41 42 43 43 43 44 45 46 47 47 46 46 46 46 46 45 43 41 40 39
20 21 22 23 25 27 29 31 34 37 38 39 40 41 42 43 44 44 43 41 40 41 41 42 43 43 44 44 44 45 47 47 47 47 47 47 47 47 45 43 41 40
20 20 21 22 24 26 28 31 34 37 39 40 41 42 43 44 44 43 42 40 39 39 40 42 43 44 44 45 45 46 47 47 47 47 47 47 47 47 46 44 42 42
22 23 24 25 26 28 30 33 35 37 39 41 42 43 43 44 44 43 42 41 39 39 39 41 43 44 45 46 46 46 46 47 47 47 47 47 47 47 47 45 44 43
25 26 27 29 30 31 33 35 36 37 38 40 41 42 44 44 44 44 43 42 41 39 39 39 41 43 44 45 46 46 46 46 47 47 47 48 48 48 47 46 45 44
27 28 30 31 32 33 35 36 37 37 38 40 41 42 43 44 45 44 43 43 42 41 40 39 39 41 43 44 46 47 46 47 47 47 47 48 48 48 48 47 46 46
28 29 30 31 33 34 35 36 36 37 38 39 40 41 43 44 45 44 43 43 43 42 41 39 39 40 42 43 45 46 47 47 47 47 48 47 48 48 49 48 47 46
27 28 29 30 32 33 35 35 36 37 38 38 40 41 42 43 44 44 43 43 43 42 41 40 40 40 41 42 44 45 46 47 48 48 48 48 48 49 49 48 47 46
25 26 28 30 32 34 35 36 37 38 38 39 39 40 41 43 44 44 43 43 43 43 42 42 42 41 40 41 42 43 44 46 48 49 49 49 49 50 49 48 47 46
26 26 28 31 33 34 36 37 38 38 38 39 39 39 40 42 43 44 44 44 44 44 43 43 43 42 41 41 41 42 43 44 46 48 49 49 48 48 48 47 47 46
26 27 29 31 32 34 35 36 36 37 37 38 38 39 39 41 42 43 44 44 45 45 44 43 43 42 42 42 41 41 41 42 44 46 47 47 47 46 46 46 46 45
26 27 27 29 30 31 32 33 34 35 36 37 37 38 38 40 41 42 43 44 44 44 44 44 43 43 43 43 42 41 40 41 43 44 46 46 46 45 45 45 45 45
28 28 28 28 28 29 30 32 33 34 35 35 36 37 37 39 40 42 43 43 44 44 44 44 44 44 44 44 43 42 41 41 42 43 44 45 45 44 44 44 44 44
29 29 29 29 29 30 31 31 32 33 34 34 35 36 37 38 39 41 42 43 44 45 45 45 45 46 46 45 45 44 43 42 42 43 44 44 44 44 43 43 43 43
30 30 31 31 31 31 32 32 33 33 34 34 35 36 37 37 38 39 41 43 44 45 46 46 47 47 47 47 46 45 45 44 43 43 44 44 44 43 42 42 43 43
31 31 31 32 32 33 33 33 33 33 33 34 35 36 36 37 38 39 41 42 43 44 46 47 48 48 48 47 47 46 45 45 44 44 44 43 43 43 43 42 42 43
33 32 32 32 33 33 34 34 33 33 33 33 34 34 35 36 37 39 41 42 43 44 45 46 47 48 47 47 47 47 46 45 44 45 45 44 44 44 44 43 42 42
35 34 33 33 33 33 34 35 35 35 35 35 35 34 33 34 35 37 39 40 41 43 44 45 46 46 46 47 47 47 46 45 44 44 45 46 45 45 44 43 42 42
36 36 36 35 34 34 34 34 35 36 37 37 37 35 34 34 35 35 36 37 39 41 42 43 44 44 45 46 46 47 46 45 44 44 45 46 47 46 45 44 44 43
37 37 37 37 36 36 36 35 36 36 36 36 37 37 37 37 37 36 35 36 36 38 40 41 42 42 43 44 45 46 46 45 45 45 46 47 47 47 46 45 45 43
38 38 38 38 37 37 37 37 37 36 36 36 36 37 38 38 39 38 38 37 36 36 38 39 40 40 41 42 43 44 44 44 45 47 47 48 48 47 46 45 45 44
39 39 39 39 38 37 37 37 37 37 37 36 37 38 38 38 39 39 39 40 38 37 37 39 39 39 40 41 41 41 41 41 43 47 48 49 48 48 46 46 45 44
38 39 40 40 40 39 38 37 36 37 37 36 37 38 38 38 38 38 39 40 40 40 39 40 39 37 37 39 39 39 40 40 42 45 48 49 49 48 46 45 45 44
37 38 39 40 40 40 39 38 37 36 36 35 36 37 38 39 38 39 39 39 40 40 40 40 40 37 35 36 37 37 38 39 41 44 47 49 49 48 46 45 45 43
37 37 37 38 39 39 39 38 37 37 36 35 35 36 37 38 38 38 39 39 39 39 39 39 39 37 34 33 34 34 35 38 40 43 47 49 49 48 47 45 44 43
36 37 37 37 37 38 38 37 37 36 36 35 35 35 35 36 37 37 39 39 38 38 38 38 38 37 34 32 32 31 31 34 39 43 46 48 48 47 46 45 44 43
Wind_Direction
274 267 263 259 256 254 252 252 252 253 253 253 255 256 257 259 261 261 260 257 255 254 254 255 255 255 254 253 252 250 250 249 248 248 246 246 246 246 246 248 249 249
288 280 272 265 261 258 256 255 254 255 256 258 259 261 262 264 266 268 267 263 258 255 254 254 254 254 253 253 252 250 250 249 249 248 248 247 247 247 247 248 249 249
296 291 284 277 270 265 261 259 257 257 259 261 262 264 266 268 270 273 275 272 265 259 255 254 254 254 253 251 250 250 249 249 249 249 249 249 249 248 248 248 248 248
297 294 291 286 279 274 269 266 263 262 263 264 265 267 269 271 273 276 279 277 272 266 260 256 255 254 253 251 249 249 249 249 249 249 250 250 249 249 248 248 247 248
300 297 294 290 286 283 279 275 273 271 270 269 270 270 271 273 275 278 278 277 274 270 265 261 258 255 253 251 249 248 247 248 248 248 249 249 249 249 249 248 247 247
304 301 298 295 293 290 285 283 281 278 276 273 272 272 272 274 275 277 277 276 273 271 267 265 262 258 255 251 249 247 246 246 247 247 248 248 249 249 249 249 248 248
306 303 301 299 297 294 291 289 287 283 280 276 273 273 273 274 275 276 276 275 273 271 270 269 266 261 257 253 251 248 246 246 246 247 247 248 248 249 249 249 248 248
306 303 301 299 297 295 293 292 289 286 282 277 275 275 274 274 275 275 275 274 273 273 272 272 269 264 259 255 252 250 248 247 246 246 246 247 247 248 249 249 249 249
305 303 300 296 294 292 291 289 287 285 281 278 276 275 273 273 274 274 275 274 274 274 273 272 270 266 262 258 254 252 250 249 248 248 248 248 248 249 250 250 250 250
307 304 299 295 293 291 290 288 286 284 281 279 277 275 274 273 273 273 274 274 274 274 273 272 271 268 265 261 258 254 252 251 251 251 251 251 251 252 252 252 251 251
310 305 300 298 296 294 292 290 287 286 284 281 279 276 274 272 272 272 273 273 274 274 274 273 272 271 268 265 261 258 255 253 252 253 253 253 253 253 253 253 253 252
315 308 302 299 298 296 294 291 288 286 284 282 280 278 275 273 272 272 273 273 274 275 274 273 273 272 270 267 265 262 258 255 254 254 254 254 254 253 253 253 253 252
320 314 308 302 298 296 293 291 289 287 285 284 282 279 277 275 273 273 273 274 274 274 273 273 273 272 270 268 266 264 261 258 255 255 254 254 254 253 253 253 252 251
321 317 313 308 304 299 294 291 289 288 287 286 284 281 279 277 275 274 274 274 273 272 272 272 271 270 268 267 266 264 262 259 257 256 255 255 255 254 253 253 252 251
322 318 314 310 307 304 301 298 294 291 288 286 283 282 281 279 277 276 274 273 272 272 271 270 269 268 267 267 266 265 263 262 260 258 256 256 256 255 254 253 252 251
321 318 315 311 309 306 304 303 300 298 294 290 286 283 281 280 278 276 274 273 273 273 272 270 268 268 267 267 266 265 264 263 262 261 259 258 257 256 255 253 252 252
319 317 316 313 311 309 307 305 303 300 297 294 291 288 286 283 279 277 275 274 273 273 272 271 270 269 268 267 266 265 264 263 263 262 261 259 258 256 255 254 253 252
320 318 316 315 313 311 309 308 306 304 301 299 296 294 292 287 283 280 278 276 274 273 272 272 272 271 269 267 266 265 264 263 262 262 261 260 259 257 256 255 254 253
323 321 319 317 315 313 311 309 308 306 306 304 302 299 295 290 287 285 283 280 277 275 274 274 273 272 270 267 266 264 264 264 263 261 261 260 259 258 257 256 255 254
324 323 321 320 318 316 313 310 309 308 307 307 305 302 298 294 291 288 286 283 280 278 277 276 275 273 270 268 266 264 264 264 264 263 261 260 259 258 257 256 255 255
322 321 320 319 318 317 315 313 311 309 307 307 305 303 300 298 295 292 289 286 283 280 278 277 276 274 271 269 266 264 263 262 263 264 261 259 259 257 256 255 255 255
320 319 318 318 317 316 315 313 312 309 308 307 305 302 301 299 297 295 293 290 287 284 280 278 277 274 272 270 267 265 262 257 258 261 261 259 258 257 255 254 253 253
320 318 316 316 315 315 313 312 311 309 308 307 305 303 301 300 298 296 294 292 289 287 283 281 279 276 274 272 269 265 260 253 252 256 258 258 257 256 256 254 253 252
321 319 317 315 314 314 313 312 310 308 307 306 304 302 301 300 298 296 294 291 289 287 286 284 282 280 276 273 271 267 260 253 251 252 254 256 255 255 255 254 254 253
324 322 320 318 316 315 314 313 312 310 308 306 304 302 300 299 297 296 294 292 290 288 286 285 284 282 278 275 272 269 261 254 250 248 250 252 252 253 254 254 253 253
326 324 322 321 319 318 316 315 314 313 312 310 307 304 302 300 298 296 294 293 291 290 288 286 285 284 282 278 275 271 263 254 249 247 248 249 250 251 252 252 253 253
Height
1440 1441 1442 1443 1444 1445 1447 1448 1448 1448 1449 1449 1450 1450 1451 1451 1452 1453 1454 1456 1457 1458 1460 1460 1461 1461 1462 1463 1464 1464 1465 1465 1466 1468 1468 1469 1470 1471 1473 1473 1474 1475
1439 1440 1440 1441 1442 1443 1444 1445 1445 1445 1445 1445 1446 1446 1446 1446 1447 1448 1449 1451 1452 1453 1454 1455 1455 1456 1457 1458 1458 1459 1459 1460 1461 1462 1463 1464 1465 1466 1468 1469 1469 1470
1437 1438 1439 1439 1440 1441 1441 1442 1442 1441 1441 1442 1442 1442 1441 1441 1442 1443 1444 1445 1446 1447 1449 1449 1450 1451 1452 1452 1453 1453 1453 1454 1455 1457 1458 1459 1460 1461 1463 1464 1465 1465
1436 1436 1437 1437 1438 1438 1439 1438 1438 1438 1438 1438 1438 1438 1437 1437 1438 1439 1440 1440 1441 1442 1443 1443 1444 1445 1446 1447 1448 1448 1448 1449 1450 1452 1453 1454 1455 1456 1457 1459 1459 1460
1435 1435 1435 1435 1435 1436 1436 1435 1435 1435 1435 1435 1434 1434 1434 1433 1434 1434 1435 1435 1435 1436 1437 1437 1438 1439 1440 1441 1442 1442 1443 1443 1444 1446 1446 1447 1449 1450 1451 1453 1454 1454
1434 1433 1433 1433 1433 1433 1432 1431 1432 1431 1431 1431 1430 1430 1430 1429 1429 1430 1430 1430 1431 1431 1432 1432 1433 1434 1434 1436 1436 1437 1437 1438 1438 1440 1440 1441 1443 1443 1444 1446 1448 1449
1432 1432 1431 1431 1430 1429 1428 1428 1428 1427 1427 1427 1426 1426 1426 1425 1425 1425 1425 1426 1426 1426 1427 1427 1428 1429 1429 1430 1431 1431 1432 1433 1433 1434 1435 1436 1437 1437 1438 1440 1442 1443
1430 1429 1429 1428 1427 1426 1425 1424 1424 1424 1424 1423 1423 1422 1422 1421 1420 1421 1421 1421 1421 1421 1422 1422 1423 1424 1424 1425 1425 1426 1427 1428 1428 1428 1429 1430 1431 1431 1432 1434 1436 1437
1427 1426 1426 1425 1424 1423 1422 1422 1422 1421 1421 1420 1419 1419 1419 1417 1417 1417 1417 1417 1417 1417 1417 1417 1418 1418 1419 1419 1420 1421 1422 1423 1423 1423 1424 1425 1425 1426 1427 1428 1430 1432
1424 1424 1423 1422 1421 1420 1420 1419 1419 1418 1418 1417 1417 1417 1416 1415 1414 1414 1413 1413 1412 1412 1413 1413 1413 1414 1414 1414 1415 1417 1418 1419 1419 1419 1419 1420 1421 1421 1422 1423 1425 1426
1422 1421 1420 1419 1418 1417 1416 1416 1415 1415 1415 1414 1414 1413 1413 1412 1410 1409 1409 1408 1408 1408 1408 1409 1409 1409 1409 1409 1410 1412 1413 1414 1414 1414 1414 1415 1416 1417 1417 1418 1420 1421
1418 1417 1416 1415 1414 1414 1413 1413 1412 1411 1411 1410 1410 1409 1409 1408 1406 1405 1404 1403 1403 1403 1403 1404 1404 1404 1404 1405 1406 1407 1408 1409 1409 1409 1409 1409 1411 1412 1412 1413 1415 1416
1414 1413 1412 1411 1410 1410 1409 1409 1408 1408 1407 1406 1406 1405 1404 1403 1402 1401 1400 1399 1399 1399 1398 1398 1398 1398 1398 1399 1400 1402 1403 1404 1404 1404 1403 1404 1405 1406 1407 1408 1409 1410
1411 1409 1408 1407 1407 1406 1405 1404 1404 1403 1403 1402 1402 1400 1400 1399 1398 1398 1397 1395 1395 1394 1394 1394 1393 1392 1392 1393 1394 1395 1396 1397 1398 1398 1398 1398 1399 1399 1401 1401 1402 1404
1408 1406 1405 1404 1403 1402 1401 1400 1399 1399 1398 1397 1396 1395 1395 1394 1394 1393 1392 1391 1390 1389 1389 1388 1387 1386 1386 1387 1388 1389 1391 1392 1392 1393 1392 1392 1393 1393 1394 1395 1396 1397
1405 1404 1402 1400 1399 1398 1397 1395 1395 1394 1393 1392 1391 1391 1390 1390 1389 1388 1387 1386 1385 1384 1383 1382 1381 1381 1381 1382 1382 1383 1385 1386 1387 1387 1387 1387 1387 1387 1387 1388 1389 1391
1402 1400 1399 1397 1396 1394 1393 1391 1390 1389 1388 1387 1386 1385 1385 1385 1384 1382 1381 1381 1380 1379 1378 1376 1375 1375 1376 1376 1377 1377 1378 1380 1381 1381 1382 1382 1381 1381 1381 1382 1384 1385
1398 1396 1395 1394 1392 1390 1389 1387 1386 1384 1383 1382 1381 1380 1380 1379 1378 1377 1376 1376 1375 1374 1372 1371 1370 1370 1371 1371 1371 1371 1372 1374 1374 1375 1375 1375 1376 1375 1376 1377 1378 1379
1394 1392 1390 1389 1387 1386 1384 1383 1381 1380 1378 1377 1376 1375 1374 1372 1371 1371 1370 1370 1369 1368 1367 1366 1366 1366 1366 1366 1366 1366 1367 1368 1368 1369 1368 1369 1369 1370 1371 1372 1372 1373
1390 1388 1386 1384 1383 1381 1380 1378 1377 1375 1374 1373 1371 1370 1368 1367 1366 1365 1364 1364 1363 1362 1362 1361 1360 1360 1361 1361 1361 1361 1362 1362 1362 1362 1362 1362 1362 1364 1365 1366 1367 1368
1386 1384 1382 1380 1379 1377 1375 1373 1372 1370 1369 1368 1366 1365 1363 1361 1360 1359 1358 1357 1357 1357 1356 1355 1354 1355 1355 1355 1356 1356 1358 1358 1356 1355 1355 1356 1356 1357 1359 1360 1361 1362
1382 1380 1378 1376 1374 1373 1371 1369 1367 1366 1364 1363 1361 1359 1358 1356 1355 1354 1352 1351 1351 1350 1349 1348 1348 1350 1349 1349 1350 1351 1352 1353 1351 1348 1348 1349 1349 1350 1352 1354 1355 1357
1378 1376 1373 1371 1370 1368 1366 1364 1363 1361 1360 1358 1356 1354 1352 1351 1350 1348 1347 1346 1344 1344 1343 1342 1342 1343 1344 1344 1344 1345 1346 1347 1345 1343 1341 1341 1342 1344 1346 1347 1349 1351
1375 1373 1370 1368 1365 1363 1362 1360 1358 1356 1355 1353 1352 1349 1347 1346 1345 1343 1341 1340 1339 1338 1337 1336 1336 1337 1338 1338 1338 1340 1341 1341 1340 1338 1335 1334 1335 1337 1339 1341 1343 1345
1372 1369 1367 1364 1362 1360 1358 1355 1353 1352 1350 1349 1347 1345 1342 1341 1340 1338 1336 1335 1334 1333 1332 1331 1330 1330 1332 1332 1332 1333 1335 1335 1335 1333 1330 1328 1329 1330 1332 1335 1337 1339
1369 1366 1364 1361 1358 1356 1353 1351 1349 1347 1345 1344 1342 1340 1338 1336 1335 1333 1331 1329 1329 1328 1327 1326 1325 1325 1326 1326 1326 1327 1328 1329 1330 1328 1326 1324 1324 1325 1326 1328 1330 1332